BNO95J ENTC-ENGM

Flight info

Callsign BNO95J
Flight time 1h 40m
Altitude 43000
Route AMIMO DCT TUXOT Z101 SOMUB DCT BELGU
Aircraft C700/M-SBDGHM1RWXY/LB2

Departure

Time 2026-05-05 18:48
Airport Tromsø Airport (ENTC)

Arrival

Time 2026-05-05 20:29
Airport Oslo-Gardermoen International Airport (ENGM)
Time Latitude Longitude Altitude Speed Heading
2026-05-05 18:42 69.68588 18.91407 20 ft 0 kts 185°
2026-05-05 18:44 69.68584 18.91412 20 ft 2 kts 158°
2026-05-05 18:44 69.68524 18.91488 20 ft 10 kts 152°
2026-05-05 18:44 69.68447 18.91509 22 ft 13 kts 187°
2026-05-05 18:44 69.68383 18.91506 22 ft 10 kts 180°
2026-05-05 18:45 69.68308 18.91490 22 ft 12 kts 192°
2026-05-05 18:45 69.68214 18.91424 27 ft 15 kts 194°
2026-05-05 18:45 69.68103 18.91350 26 ft 18 kts 192°
2026-05-05 18:45 69.67971 18.91269 29 ft 20 kts 192°
2026-05-05 18:46 69.67859 18.91189 32 ft 16 kts 195°
2026-05-05 18:46 69.67777 18.91132 34 ft 8 kts 191°
2026-05-05 18:46 69.67711 18.91093 34 ft 12 kts 191°
2026-05-05 18:46 69.67651 18.91081 35 ft 2 kts 154°
2026-05-05 18:47 69.67650 18.91082 35 ft 0 kts 153°
2026-05-05 18:47 69.67632 18.91186 36 ft 13 kts 103°
2026-05-05 18:47 69.67637 18.91422 34 ft 0 kts 15°
2026-05-05 18:47 69.67807 18.91536 34 ft 70 kts 13°
2026-05-05 18:48 69.68583 18.92017 74 ft 150 kts
2026-05-05 18:48 69.69713 18.92577 611 ft 177 kts 10°
2026-05-05 18:48 69.70983 18.93506 1222 ft 198 kts 15°
2026-05-05 18:48 69.72348 18.94521 1935 ft 201 kts 13°
2026-05-05 18:49 69.73685 18.95395 2590 ft 196 kts 13°
2026-05-05 18:49 69.75019 18.96172 3235 ft 196 kts
2026-05-05 18:49 69.76392 18.95845 3926 ft 203 kts 347°
2026-05-05 18:49 69.77694 18.94187 4610 ft 207 kts 327°
2026-05-05 18:50 69.78742 18.91287 5304 ft 213 kts 307°
2026-05-05 18:50 69.79400 18.87393 6015 ft 219 kts 286°
2026-05-05 18:50 69.79736 18.83081 6665 ft 221 kts 283°
2026-05-05 18:50 69.80079 18.78766 7318 ft 219 kts 283°
2026-05-05 18:51 69.80402 18.74432 7979 ft 222 kts 279°
2026-05-05 18:51 69.80321 18.69948 8682 ft 226 kts 257°
2026-05-05 18:51 69.79734 18.65739 9418 ft 228 kts 238°
2026-05-05 18:51 69.78674 18.62252 10118 ft 238 kts 218°
2026-05-05 18:52 69.77212 18.59659 10826 ft 260 kts 209°
2026-05-05 18:52 69.75538 18.56979 11520 ft 291 kts 208°
2026-05-05 18:52 69.73694 18.53986 12217 ft 312 kts 210°
2026-05-05 18:52 69.71785 18.50918 12929 ft 315 kts 209°
2026-05-05 18:53 69.69875 18.47791 13602 ft 316 kts 212°
2026-05-05 18:53 69.67974 18.44578 14325 ft 315 kts 212°
2026-05-05 18:53 69.66046 18.41470 15105 ft 320 kts 211°
2026-05-05 18:53 69.64079 18.38371 15902 ft 325 kts 211°
2026-05-05 18:54 69.62099 18.35209 16728 ft 327 kts 211°
2026-05-05 18:54 69.60103 18.31995 17581 ft 331 kts 211°
2026-05-05 18:54 69.58080 18.28756 18365 ft 336 kts 211°
2026-05-05 18:54 69.56022 18.25486 19133 ft 340 kts 211°
2026-05-05 18:55 69.53932 18.22173 19926 ft 346 kts 211°
2026-05-05 18:55 69.51807 18.18803 20733 ft 352 kts 210°
2026-05-05 18:55 69.49654 18.15394 21567 ft 356 kts 210°
2026-05-05 18:55 69.47478 18.11962 22423 ft 359 kts 210°
2026-05-05 18:56 69.45279 18.08502 23300 ft 362 kts 210°
2026-05-05 18:56 69.43062 18.05019 23928 ft 367 kts 210°
2026-05-05 18:56 69.40805 18.01484 24553 ft 373 kts 210°
2026-05-05 18:56 69.38517 17.97875 25190 ft 379 kts 211°
2026-05-05 18:57 69.36233 17.94061 25848 ft 384 kts 211°
2026-05-05 18:57 69.33894 17.90275 26520 ft 390 kts 210°
2026-05-05 18:57 69.31526 17.86450 27199 ft 395 kts 211°
2026-05-05 18:57 69.29133 17.82536 27901 ft 400 kts 211°
2026-05-05 18:58 69.26707 17.78569 28617 ft 405 kts 211°
2026-05-05 18:58 69.24247 17.74583 29358 ft 411 kts 211°
2026-05-05 18:58 69.21754 17.70565 30031 ft 416 kts 210°
2026-05-05 18:58 69.19221 17.66480 30637 ft 421 kts 210°
2026-05-05 18:59 69.16670 17.62374 31257 ft 425 kts 210°
2026-05-05 18:59 69.14083 17.58226 31889 ft 430 kts 210°
2026-05-05 18:59 69.11469 17.54045 32537 ft 434 kts 210°
2026-05-05 18:59 69.08834 17.49845 33201 ft 438 kts 210°
2026-05-05 19:00 69.06176 17.45618 33837 ft 441 kts 210°
2026-05-05 19:00 69.03497 17.41367 34397 ft 444 kts 210°
2026-05-05 19:00 69.00799 17.37099 34966 ft 447 kts 210°
2026-05-05 19:00 68.98118 17.32872 35538 ft 448 kts 210°
2026-05-05 19:01 68.95410 17.28616 36134 ft 446 kts 210°
2026-05-05 19:01 68.92716 17.24389 36742 ft 443 kts 210°
2026-05-05 19:01 68.90038 17.20200 37372 ft 441 kts 210°
2026-05-05 19:01 68.87367 17.16038 38022 ft 439 kts 210°
2026-05-05 19:02 68.84715 17.11912 38604 ft 435 kts 210°
2026-05-05 19:02 68.82087 17.07837 39131 ft 431 kts 210°
2026-05-05 19:02 68.79483 17.03811 39674 ft 426 kts 210°
2026-05-05 19:02 68.76913 16.99856 40232 ft 420 kts 209°
2026-05-05 19:03 68.74254 16.96663 40788 ft 415 kts 199°
2026-05-05 19:03 68.71481 16.94684 41374 ft 409 kts 193°
2026-05-05 19:03 68.68666 16.92971 41729 ft 410 kts 193°
2026-05-05 19:03 68.65870 16.91410 42103 ft 410 kts 192°
2026-05-05 19:04 68.63069 16.89880 42357 ft 413 kts 192°
2026-05-05 19:04 68.60224 16.88334 42483 ft 418 kts 192°
2026-05-05 19:04 68.57365 16.86786 42638 ft 422 kts 192°
2026-05-05 19:04 68.54455 16.85215 42692 ft 429 kts 192°
2026-05-05 19:05 68.48501 16.82018 42698 ft 443 kts 192°
2026-05-05 19:05 68.42356 16.78740 42698 ft 457 kts 192°
2026-05-05 19:06 68.36069 16.74995 42698 ft 468 kts 196°
2026-05-05 19:06 68.29640 16.70973 42695 ft 480 kts 193°
2026-05-05 19:07 68.24189 16.67455 42694 ft 489 kts 195°
2026-05-05 19:07 68.16431 16.62415 42682 ft 495 kts 194°
2026-05-05 19:08 68.09760 16.58184 42683 ft 491 kts 194°
2026-05-05 19:08 68.03154 16.53965 42669 ft 486 kts 194°
2026-05-05 19:09 67.96572 16.49834 42680 ft 485 kts 194°
2026-05-05 19:09 67.89982 16.45685 42683 ft 488 kts 194°
2026-05-05 19:10 67.83646 16.39342 42690 ft 488 kts 206°
2026-05-05 19:10 67.77499 16.31686 42697 ft 490 kts 206°
2026-05-05 19:11 67.72362 16.25354 42699 ft 489 kts 206°
2026-05-05 19:11 67.66206 16.17775 42687 ft 486 kts 206°
2026-05-05 19:12 67.60087 16.10303 42687 ft 483 kts 206°
2026-05-05 19:12 67.53998 16.02901 42683 ft 482 kts 206°
2026-05-05 19:13 67.47893 15.95527 42690 ft 484 kts 206°
2026-05-05 19:13 67.41756 15.88154 42695 ft 486 kts 206°
2026-05-05 19:14 67.35596 15.80797 42691 ft 488 kts 206°
2026-05-05 19:14 67.29424 15.73466 42692 ft 487 kts 206°
2026-05-05 19:15 67.23274 15.66202 42690 ft 485 kts 206°
2026-05-05 19:15 67.17131 15.58988 42688 ft 484 kts 205°
2026-05-05 19:16 67.10995 15.51823 42690 ft 484 kts 205°
2026-05-05 19:16 67.04843 15.44679 42686 ft 485 kts 205°
2026-05-05 19:17 66.98727 15.37617 42685 ft 486 kts 205°
2026-05-05 19:17 66.92556 15.30529 42682 ft 487 kts 205°
2026-05-05 19:18 66.86379 15.23475 42686 ft 487 kts 205°
2026-05-05 19:18 66.80147 15.16399 42689 ft 487 kts 205°
2026-05-05 19:19 66.73953 15.09403 42685 ft 488 kts 205°
2026-05-05 19:19 66.67748 15.02433 42692 ft 488 kts 205°
2026-05-05 19:20 66.61575 14.95538 42693 ft 488 kts 205°
2026-05-05 19:20 66.55362 14.88638 42700 ft 488 kts 205°
2026-05-05 19:21 66.49107 14.81727 42707 ft 488 kts 205°
2026-05-05 19:21 66.42933 14.74944 42709 ft 486 kts 205°
2026-05-05 19:22 66.36746 14.68183 42707 ft 485 kts 205°
2026-05-05 19:22 66.30521 14.61417 42709 ft 484 kts 205°
2026-05-05 19:23 66.24387 14.54786 42710 ft 483 kts 205°
2026-05-05 19:23 66.18225 14.48160 42711 ft 482 kts 205°
2026-05-05 19:24 66.12024 14.41528 42707 ft 482 kts 205°
2026-05-05 19:24 66.05852 14.34961 42709 ft 484 kts 205°
2026-05-05 19:25 65.99648 14.28395 42715 ft 486 kts 205°
2026-05-05 19:25 65.93415 14.21835 42726 ft 488 kts 205°
2026-05-05 19:26 65.87186 14.15314 42716 ft 486 kts 205°
2026-05-05 19:26 65.80964 14.08833 42719 ft 485 kts 204°
2026-05-05 19:27 65.74809 14.02450 42718 ft 483 kts 204°
2026-05-05 19:27 65.68616 13.96071 42719 ft 482 kts 204°
2026-05-05 19:28 65.62438 13.89736 42728 ft 481 kts 204°
2026-05-05 19:28 65.56242 13.83416 42737 ft 481 kts 204°
2026-05-05 19:29 65.50064 13.77146 42748 ft 482 kts 204°
2026-05-05 19:29 65.43869 13.70893 42758 ft 483 kts 204°
2026-05-05 19:30 65.37695 13.64690 42770 ft 484 kts 204°
2026-05-05 19:30 65.31435 13.58439 42753 ft 484 kts 205°
2026-05-05 19:31 65.25230 13.52268 42770 ft 483 kts 204°
2026-05-05 19:31 65.19021 13.46130 42770 ft 482 kts 204°
2026-05-05 19:32 65.12826 13.40033 42781 ft 482 kts 204°
2026-05-05 19:32 65.06634 13.33970 42781 ft 481 kts 205°
2026-05-05 19:33 65.00454 13.27950 42795 ft 480 kts 204°
2026-05-05 19:33 64.94270 13.21957 42791 ft 481 kts 204°
2026-05-05 19:34 64.88075 13.15982 42804 ft 481 kts 204°
2026-05-05 19:35 64.78759 13.07055 42815 ft 483 kts 204°
2026-05-05 19:35 64.72520 13.01112 42806 ft 484 kts 204°
2026-05-05 19:36 64.66269 12.95189 42830 ft 484 kts 204°
2026-05-05 19:36 64.60022 12.89298 42830 ft 484 kts 204°
2026-05-05 19:37 64.53779 12.83440 42840 ft 484 kts 204°
2026-05-05 19:37 64.47533 12.77608 42840 ft 483 kts 204°
2026-05-05 19:38 64.41332 12.71848 42839 ft 483 kts 204°
2026-05-05 19:38 64.35096 12.66082 42856 ft 482 kts 204°
2026-05-05 19:39 64.28868 12.60352 42887 ft 482 kts 204°
2026-05-05 19:39 64.22599 12.54614 42917 ft 481 kts 204°
2026-05-05 19:40 64.16375 12.48942 42945 ft 481 kts 204°
2026-05-05 19:40 64.10148 12.43297 42961 ft 481 kts 204°
2026-05-05 19:41 64.03892 12.37651 42965 ft 480 kts 204°
2026-05-05 19:41 63.97713 12.32110 42861 ft 480 kts 203°
2026-05-05 19:42 63.91437 12.26855 42873 ft 480 kts 202°
2026-05-05 19:42 63.85176 12.21595 42875 ft 480 kts 202°
2026-05-05 19:43 63.78915 12.16409 42890 ft 479 kts 202°
2026-05-05 19:43 63.72661 12.11220 42889 ft 479 kts 202°
2026-05-05 19:44 63.66394 12.06066 42893 ft 480 kts 202°
2026-05-05 19:44 63.60115 12.00914 42903 ft 482 kts 202°
2026-05-05 19:45 63.53794 11.95759 42893 ft 483 kts 202°
2026-05-05 19:45 63.47478 11.90629 42910 ft 483 kts 202°
2026-05-05 19:46 63.41154 11.85518 42911 ft 482 kts 202°
2026-05-05 19:46 63.35897 11.81288 42915 ft 482 kts 202°
2026-05-05 19:47 63.29428 11.77186 42914 ft 484 kts 198°
2026-05-05 19:47 63.22944 11.73230 42921 ft 483 kts 198°
2026-05-05 19:48 63.16459 11.69342 42919 ft 483 kts 198°
2026-05-05 19:48 63.09974 11.65459 42922 ft 482 kts 198°
2026-05-05 19:49 63.03497 11.61599 42921 ft 482 kts 198°
2026-05-05 19:49 62.97017 11.57750 42927 ft 482 kts 198°
2026-05-05 19:50 62.90542 11.53921 42930 ft 481 kts 198°
2026-05-05 19:50 62.84076 11.50121 42930 ft 481 kts 198°
2026-05-05 19:51 62.77609 11.46332 42929 ft 481 kts 198°
2026-05-05 19:51 62.71144 11.42565 42928 ft 481 kts 198°
2026-05-05 19:52 62.64718 11.38838 42933 ft 479 kts 198°
2026-05-05 19:52 62.58272 11.35113 42935 ft 479 kts 198°
2026-05-05 19:53 62.51827 11.31409 42927 ft 479 kts 198°
2026-05-05 19:53 62.45384 11.27721 42924 ft 479 kts 198°
2026-05-05 19:54 62.38945 11.24050 42929 ft 479 kts 198°
2026-05-05 19:54 62.32509 11.20400 42930 ft 478 kts 198°
2026-05-05 19:55 62.26078 11.16765 42925 ft 478 kts 198°
2026-05-05 19:55 62.19630 11.13140 42924 ft 479 kts 198°
2026-05-05 19:56 62.13167 11.09521 42928 ft 480 kts 198°
2026-05-05 19:56 62.06693 11.05913 42921 ft 481 kts 198°
2026-05-05 19:57 62.00235 11.02328 42919 ft 478 kts 198°
2026-05-05 19:57 61.93796 10.98770 42790 ft 478 kts 198°
2026-05-05 19:57 61.90566 10.96989 42086 ft 471 kts 198°
2026-05-05 19:58 61.87506 10.95325 41344 ft 452 kts 198°
2026-05-05 19:58 61.84450 10.93635 40719 ft 456 kts 199°
2026-05-05 19:58 61.81375 10.91939 40134 ft 458 kts 199°
2026-05-05 19:58 61.78287 10.90259 39555 ft 459 kts 199°
2026-05-05 19:59 61.75190 10.88581 39020 ft 458 kts 199°
2026-05-05 19:59 61.72108 10.86902 38481 ft 457 kts 199°
2026-05-05 19:59 61.69028 10.85225 37854 ft 456 kts 199°
2026-05-05 19:59 61.65966 10.83568 37258 ft 454 kts 199°
2026-05-05 20:00 61.62913 10.81921 36692 ft 452 kts 200°
2026-05-05 20:00 61.59873 10.80280 36151 ft 449 kts 200°
2026-05-05 20:00 61.56849 10.78648 35634 ft 448 kts 200°
2026-05-05 20:00 61.53828 10.77026 35143 ft 448 kts 200°
2026-05-05 20:01 61.50807 10.75407 34673 ft 448 kts 200°
2026-05-05 20:01 61.47786 10.73792 34159 ft 447 kts 201°
2026-05-05 20:01 61.44776 10.72185 33668 ft 446 kts 202°
2026-05-05 20:01 61.41776 10.70585 33143 ft 444 kts 202°
2026-05-05 20:02 61.38792 10.68999 32643 ft 442 kts 202°
2026-05-05 20:02 61.35855 10.67439 32170 ft 439 kts 202°
2026-05-05 20:02 61.32929 10.65900 31699 ft 425 kts 203°
2026-05-05 20:02 61.30131 10.64438 31223 ft 405 kts 204°
2026-05-05 20:03 61.27464 10.63030 30752 ft 387 kts 205°
2026-05-05 20:03 61.24912 10.61673 30282 ft 371 kts 205°
2026-05-05 20:03 61.22457 10.60376 29790 ft 358 kts 206°
2026-05-05 20:03 61.20042 10.59258 29221 ft 355 kts 202°
2026-05-05 20:04 61.17623 10.58351 28674 ft 351 kts 202°
2026-05-05 20:04 61.15225 10.57419 28160 ft 350 kts 202°
2026-05-05 20:04 61.12824 10.56468 27661 ft 352 kts 202°
2026-05-05 20:04 61.10411 10.55544 27188 ft 353 kts 202°
2026-05-05 20:05 61.07957 10.54617 26723 ft 354 kts 201°
2026-05-05 20:05 61.05540 10.53697 26215 ft 353 kts 201°
2026-05-05 20:05 61.03131 10.52774 25685 ft 351 kts 201°
2026-05-05 20:05 61.00741 10.51866 25186 ft 347 kts 201°
2026-05-05 20:06 60.98386 10.50972 24655 ft 342 kts 201°
2026-05-05 20:06 60.96060 10.50087 24153 ft 337 kts 201°
2026-05-05 20:06 60.93765 10.49213 23656 ft 334 kts 201°
2026-05-05 20:06 60.91493 10.48352 23043 ft 330 kts 202°
2026-05-05 20:07 60.89246 10.47501 22471 ft 327 kts 202°
2026-05-05 20:07 60.87015 10.46659 21917 ft 325 kts 201°
2026-05-05 20:07 60.84796 10.45823 21371 ft 324 kts 201°
2026-05-05 20:07 60.82581 10.44989 20841 ft 323 kts 200°
2026-05-05 20:08 60.80369 10.44160 20323 ft 323 kts 200°
2026-05-05 20:08 60.78156 10.43331 19833 ft 323 kts 199°
2026-05-05 20:08 60.75947 10.42505 19352 ft 323 kts 198°
2026-05-05 20:08 60.73740 10.41682 18880 ft 323 kts 198°
2026-05-05 20:09 60.71534 10.40860 18420 ft 322 kts 197°
2026-05-05 20:09 60.69326 10.40036 17858 ft 322 kts 197°
2026-05-05 20:09 60.67127 10.39220 17290 ft 320 kts 196°
2026-05-05 20:09 60.64924 10.38406 16733 ft 315 kts 195°
2026-05-05 20:10 60.62820 10.37626 16187 ft 310 kts 196°
2026-05-05 20:10 60.60688 10.36835 15677 ft 305 kts 195°
2026-05-05 20:10 60.58612 10.36063 15166 ft 302 kts 195°
2026-05-05 20:10 60.56551 10.35301 14681 ft 300 kts 194°
2026-05-05 20:11 60.54501 10.34545 14206 ft 299 kts 194°
2026-05-05 20:11 60.52484 10.33802 13729 ft 297 kts 193°
2026-05-05 20:11 60.50452 10.33056 13204 ft 296 kts 193°
2026-05-05 20:11 60.48442 10.32317 12784 ft 291 kts 193°
2026-05-05 20:12 60.46462 10.31590 12399 ft 288 kts 193°
2026-05-05 20:12 60.44491 10.30865 12015 ft 288 kts 193°
2026-05-05 20:12 60.42504 10.30310 11635 ft 288 kts 187°
2026-05-05 20:12 60.40507 10.29994 11256 ft 288 kts 187°
2026-05-05 20:13 60.38504 10.29665 10865 ft 287 kts 187°
2026-05-05 20:13 60.36504 10.29311 10484 ft 285 kts 187°
2026-05-05 20:13 60.34532 10.28966 10109 ft 283 kts 187°
2026-05-05 20:13 60.32573 10.28628 9734 ft 282 kts 187°
2026-05-05 20:14 60.30625 10.28294 9347 ft 280 kts 187°
2026-05-05 20:14 60.28693 10.27964 8979 ft 278 kts 187°
2026-05-05 20:14 60.26799 10.27640 8918 ft 269 kts 187°
2026-05-05 20:14 60.24925 10.27317 8914 ft 273 kts 187°
2026-05-05 20:15 60.23012 10.26985 8921 ft 279 kts 187°
2026-05-05 20:15 60.21070 10.26655 8925 ft 280 kts 187°
2026-05-05 20:15 60.19173 10.26336 8917 ft 266 kts 187°
2026-05-05 20:15 60.17383 10.26034 8909 ft 250 kts 187°
2026-05-05 20:16 60.15694 10.25744 8907 ft 240 kts 187°
2026-05-05 20:16 60.14031 10.25456 8911 ft 240 kts 187°
2026-05-05 20:16 60.12387 10.24850 8908 ft 242 kts 201°
2026-05-05 20:16 60.10802 10.23652 8920 ft 244 kts 202°
2026-05-05 20:17 60.09195 10.22507 8927 ft 245 kts 201°
2026-05-05 20:17 60.07590 10.21368 8926 ft 244 kts 202°
2026-05-05 20:17 60.06015 10.20236 8914 ft 244 kts 202°
2026-05-05 20:17 60.04418 10.19084 8913 ft 244 kts 202°
2026-05-05 20:18 60.02794 10.18136 8896 ft 245 kts 186°
2026-05-05 20:18 60.01153 10.19002 8911 ft 252 kts 148°
2026-05-05 20:18 60.00052 10.21723 8755 ft 261 kts 112°
2026-05-05 20:18 59.99779 10.25308 8496 ft 261 kts 89°
2026-05-05 20:19 59.99815 10.28910 8242 ft 257 kts 89°
2026-05-05 20:19 59.99733 10.32458 7967 ft 254 kts 95°
2026-05-05 20:19 59.99539 10.35929 7700 ft 250 kts 96°
2026-05-05 20:19 59.99352 10.39371 7434 ft 248 kts 95°
2026-05-05 20:20 59.99193 10.42794 7175 ft 247 kts 95°
2026-05-05 20:20 59.99037 10.46220 6915 ft 248 kts 95°
2026-05-05 20:20 59.98872 10.49647 6663 ft 248 kts 95°
2026-05-05 20:20 59.98705 10.53077 6411 ft 248 kts 95°
2026-05-05 20:21 59.98539 10.56492 6143 ft 247 kts 95°
2026-05-05 20:21 59.98373 10.59896 5872 ft 246 kts 95°
2026-05-05 20:21 59.98207 10.63285 5607 ft 245 kts 95°
2026-05-05 20:21 59.98040 10.66655 5342 ft 242 kts 95°
2026-05-05 20:22 59.97875 10.69977 5077 ft 238 kts 95°
2026-05-05 20:22 59.97715 10.73208 5003 ft 229 kts 95°
2026-05-05 20:22 59.97557 10.76368 5000 ft 230 kts 95°
2026-05-05 20:22 59.97416 10.79598 5001 ft 236 kts 91°
2026-05-05 20:23 59.97679 10.82846 5001 ft 239 kts 74°
2026-05-05 20:23 59.98098 10.86061 5006 ft 239 kts 75°
2026-05-05 20:23 59.98485 10.89230 4986 ft 229 kts 76°
2026-05-05 20:23 59.98887 10.92267 4775 ft 224 kts 69°
2026-05-05 20:24 59.99354 10.94087 4571 ft 219 kts 55°
2026-05-05 20:24 60.00750 10.96816 4227 ft 206 kts 30°
2026-05-05 20:24 60.01594 10.97630 4041 ft 202 kts 18°
2026-05-05 20:24 60.02907 10.98459 3937 ft 197 kts 14°
2026-05-05 20:25 60.04252 10.99226 3693 ft 203 kts 13°
2026-05-05 20:25 60.05572 10.99966 3415 ft 192 kts 13°
2026-05-05 20:25 60.07249 11.00932 3066 ft 183 kts 13°
2026-05-05 20:25 60.08035 11.01387 2993 ft 154 kts 13°
2026-05-05 20:26 60.09002 11.01931 2800 ft 151 kts 11°
2026-05-05 20:26 60.10018 11.02516 2511 ft 147 kts 13°
2026-05-05 20:26 60.10961 11.03053 2293 ft 138 kts 11°
2026-05-05 20:26 60.11885 11.03578 2103 ft 139 kts 12°
2026-05-05 20:27 60.12814 11.04111 1916 ft 139 kts 12°
2026-05-05 20:27 60.13734 11.04639 1719 ft 135 kts 12°
2026-05-05 20:27 60.14618 11.05147 1509 ft 131 kts 12°
2026-05-05 20:27 60.15488 11.05650 1321 ft 130 kts 13°
2026-05-05 20:28 60.16354 11.06131 1169 ft 127 kts 13°
2026-05-05 20:28 60.17211 11.06648 1026 ft 130 kts 15°
2026-05-05 20:28 60.18095 11.07150 805 ft 132 kts 14°
2026-05-05 20:28 60.18874 11.07598 669 ft 100 kts 14°
2026-05-05 20:29 60.19372 11.07874 664 ft 44 kts 15°
2026-05-05 20:29 60.19567 11.07984 665 ft 24 kts 18°
2026-05-05 20:29 60.19726 11.08070 667 ft 20 kts
2026-05-05 20:29 60.19788 11.07966 667 ft 14 kts 285°
2026-05-05 20:30 60.19849 11.07813 669 ft 16 kts 347°
2026-05-05 20:30 60.19973 11.07791 670 ft 21 kts 354°
2026-05-05 20:30 60.20136 11.07782 670 ft 26 kts 11°
2026-05-05 20:30 60.20326 11.07897 668 ft 31 kts 15°
2026-05-05 20:31 60.20458 11.07972 669 ft 13 kts 17°
2026-05-05 20:31 60.20536 11.08036 671 ft 12 kts 37°
2026-05-05 20:31 60.20590 11.08185 672 ft 15 kts 57°
2026-05-05 20:31 60.20673 11.08294 672 ft 15 kts 16°
2026-05-05 20:32 60.20785 11.08353 671 ft 17 kts 15°
2026-05-05 20:32 60.20898 11.08409 673 ft 12 kts
2026-05-05 20:32 60.20933 11.08407 672 ft 3 kts 334°
2026-05-05 20:32 60.20967 11.08341 672 ft 11 kts 279°
2026-05-05 20:33 60.20957 11.08143 672 ft 15 kts 267°
2026-05-05 20:33 60.20979 11.08079 672 ft 0 kts 345°